Weather in Kilemari

Russia / Mari El Republic     56°46′36″N   46°51′35″E
temp.,
°C
wind,
m/s
gust,
m/s
humid.,
%
clouds,
%
prec.,
mm/h
press.,
hPa
HPBL,
m
27 february, sat
sat2700:00−11ese4995100 2.6 997438
03:00−12e3795100 3.3 997321
06:00−13ne4894100 0.2 997386
09:00−14ne5993100 0.6 999492
12:00−13nne5890100 0.1 1002642
15:00−13nne5988100 0.1 1005727
18:00−14n41092100 0.1 1006615
21:00−16n399498 0.1 1008293
28 february, sun
sun2800:00−18n389691 0.0 1009242
03:00−19n399677 0.0 1010227
06:00−21n369818 0.0 1011134
09:00−18n369511 0.0 1012245
12:00−14n359272 0.0 1012371
15:00−11nnw369074 0.0 1013505
18:00−15nnw239696 0.0 101569
21:00−17n229888 0.0 101820
1 march, mon
mon100:00−19n129978 0.0 101920
03:00−20nnw229974 0.0 102020
06:00−21nnw11990 0.0 102120
09:00−16w119524 0.0 1022115
12:00−11wsw238984 0.0 1021403
15:00−9sw359392 0.1 1020452
18:00−10ssw3896100 0.1 1018321
21:00−10ssw4996100 0.1 1015289
2 march, tue
tue200:00−7ssw51294100 0.2 1010484
03:00−5ssw51295100 1.2 1006616
06:00−3sw51196100 1.1 1001620
09:000w4999100 2.7 999607
12:000w49100100 0.7 998678
15:000wnw51099100 1.1 998928
18:00−1nw51288100 1.3 999924
21:00−2nnw41190100 1.4 1001806
3 march, wed
wed300:00−3nnw41193100 0.0 1002577
03:00−5nw4109499 0.1 1003425
06:00−5nw4119495 0.1 1004562
09:00−5nnw5109198 0.2 1006660
12:00−4nnw5990100 0.2 1007703
15:00−4nnw5887100 0.3 1008802
18:00−5nw3988100 0.1 1009469
21:00−9wnw389460 0.1 1010160